Time,TemperatureF,DewpointF,PressureIn,WindDirection,WindDirectionDegrees,WindSpeedMPH,WindSpeedGustMPH,Humidity,HourlyPrecipIn,Conditions,Clouds,dailyrainin,SoftwareType,DateUTC
2013-03-04 00:00:00,21.9,10.1,30.08,WNW,293,0.0,0.0,60,0.00,,,0.00,WUHU216HW,2013-03-04 05:00:00,
2013-03-04 00:05:00,21.9,10.1,30.08,WNW,293,0.0,0.0,60,0.00,,,0.00,WUHU216HW,2013-03-04 05:05:00,
2013-03-04 00:11:00,21.9,10.1,30.08,WNW,293,0.0,0.0,60,0.00,,,0.00,WUHU216HW,2013-03-04 05:11:00,
2013-03-04 00:16:00,21.9,10.1,30.08,WNW,293,0.0,0.0,60,0.00,,,0.00,WUHU216HW,2013-03-04 05:16:00,
2013-03-04 00:21:00,21.9,10.1,30.08,WNW,293,0.0,0.0,60,0.00,,,0.00,WUHU216HW,2013-03-04 05:21:00,
2013-03-04 00:26:00,21.9,10.1,30.08,WNW,293,0.0,0.0,60,0.00,,,0.00,WUHU216HW,2013-03-04 05:26:00,
2013-03-04 00:31:00,21.9,10.1,30.08,North,0,0.0,0.0,60,0.00,,,0.00,WUHU216HW,2013-03-04 05:31:00,
2013-03-04 00:36:00,21.5,9.9,30.08,WNW,293,0.0,0.0,60,0.00,,,0.00,WUHU216HW,2013-03-04 05:36:00,
2013-03-04 00:41:00,21.5,9.8,30.08,WNW,293,0.0,0.0,60,0.00,,,0.00,WUHU216HW,2013-03-04 05:41:00,
2013-03-04 00:46:00,21.3,9.6,30.08,WNW,293,0.0,0.0,60,0.00,,,0.00,WUHU216HW,2013-03-04 05:46:00,
2013-03-04 00:51:00,21.2,9.5,30.08,WNW,293,0.0,0.0,60,0.00,,,0.00,WUHU216HW,2013-03-04 05:51:00,
2013-03-04 00:56:00,21.2,9.5,30.09,North,0,0.0,0.0,60,0.00,,,0.00,WUHU216HW,2013-03-04 05:56:00,
2013-03-04 01:01:00,21.0,9.3,30.09,WNW,293,0.0,0.0,60,0.00,,,0.00,WUHU216HW,2013-03-04 06:01:00,
2013-03-04 01:06:00,21.2,9.5,30.09,WNW,293,0.0,0.0,60,0.00,,,0.00,WUHU216HW,2013-03-04 06:06:00,
2013-03-04 01:11:00,21.0,9.3,30.09,WNW,293,0.0,0.0,60,0.00,,,0.00,WUHU216HW,2013-03-04 06:11:00,
2013-03-04 01:16:00,21.2,9.8,30.09,WNW,293,0.0,0.0,61,0.00,,,0.00,WUHU216HW,2013-03-04 06:16:00,
2013-03-04 01:21:00,21.0,9.6,30.09,WNW,293,0.0,0.0,61,0.00,,,0.00,WUHU216HW,2013-03-04 06:21:00,
2013-03-04 01:26:00,20.8,9.4,30.09,WNW,293,0.0,0.0,61,0.00,,,0.00,WUHU216HW,2013-03-04 06:26:00,
2013-03-04 01:31:00,20.8,9.4,30.09,WNW,293,0.0,0.0,61,0.00,,,0.00,WUHU216HW,2013-03-04 06:31:00,
2013-03-04 01:36:00,20.8,9.4,30.09,WNW,293,0.0,0.0,61,0.00,,,0.00,WUHU216HW,2013-03-04 06:36:00,
2013-03-04 01:41:00,20.8,9.4,30.09,WNW,293,0.0,0.0,61,0.00,,,0.00,WUHU216HW,2013-03-04 06:41:00,
2013-03-04 01:46:00,20.8,9.4,30.09,WNW,293,0.0,0.0,61,0.00,,,0.00,WUHU216HW,2013-03-04 06:46:00,
2013-03-04 01:51:00,20.8,9.4,30.09,WNW,293,0.0,0.0,61,0.00,,,0.00,WUHU216HW,2013-03-04 06:51:00,
2013-03-04 01:56:00,20.8,9.8,30.09,WNW,293,0.0,0.0,62,0.00,,,0.00,WUHU216HW,2013-03-04 06:56:00,
2013-03-04 02:01:00,20.8,10.0,30.09,WNW,293,0.0,0.0,62,0.00,,,0.00,WUHU216HW,2013-03-04 07:01:00,
2013-03-04 02:10:00,20.8,9.8,30.10,WNW,293,0.0,0.0,62,0.00,,,0.00,WUHU216HW,2013-03-04 07:10:00,
2013-03-04 02:15:00,20.8,9.8,30.10,WNW,293,0.0,0.0,62,0.00,,,0.00,WUHU216HW,2013-03-04 07:15:00,
2013-03-04 02:20:00,20.8,9.8,30.09,WNW,293,0.0,0.0,62,0.00,,,0.00,WUHU216HW,2013-03-04 07:20:00,
2013-03-04 02:25:00,20.6,9.6,30.10,WNW,293,0.0,0.0,62,0.00,,,0.00,WUHU216HW,2013-03-04 07:25:00,
2013-03-04 02:30:00,20.6,9.6,30.10,WNW,293,0.0,0.0,62,0.00,,,0.00,WUHU216HW,2013-03-04 07:30:00,
2013-03-04 02:35:00,20.4,9.4,30.10,WNW,293,0.0,0.0,62,0.00,,,0.00,WUHU216HW,2013-03-04 07:35:00,
2013-03-04 02:40:00,20.3,9.2,30.10,WNW,293,0.0,0.0,62,0.00,,,0.00,WUHU216HW,2013-03-04 07:40:00,
2013-03-04 02:45:00,20.3,9.2,30.10,WNW,293,0.0,0.0,62,0.00,,,0.00,WUHU216HW,2013-03-04 07:45:00,
2013-03-04 02:50:00,20.1,9.1,30.10,WNW,293,0.0,0.0,62,0.00,,,0.00,WUHU216HW,2013-03-04 07:50:00,
2013-03-04 02:55:00,20.1,9.1,30.10,WNW,293,0.0,0.0,62,0.00,,,0.00,WUHU216HW,2013-03-04 07:55:00,
2013-03-04 03:00:00,19.9,8.9,30.10,WNW,293,0.0,0.0,62,0.00,,,0.00,WUHU216HW,2013-03-04 08:00:00,
2013-03-04 03:05:00,19.7,8.7,30.09,WNW,293,0.0,0.0,62,0.00,,,0.00,WUHU216HW,2013-03-04 08:05:00,
2013-03-04 03:10:00,19.7,8.7,30.09,WNW,293,0.0,0.0,62,0.00,,,0.00,WUHU216HW,2013-03-04 08:10:00,
2013-03-04 03:15:00,19.7,8.7,30.10,WNW,293,0.0,0.0,62,0.00,,,0.00,WUHU216HW,2013-03-04 08:15:00,
2013-03-04 03:20:00,19.7,8.7,30.09,WNW,293,0.0,0.0,62,0.00,,,0.00,WUHU216HW,2013-03-04 08:20:00,
2013-03-04 03:25:00,19.7,8.7,30.09,WNW,293,0.0,0.0,62,0.00,,,0.00,WUHU216HW,2013-03-04 08:25:00,
2013-03-04 03:30:00,19.5,8.5,30.09,WNW,293,0.0,0.0,62,0.00,,,0.00,WUHU216HW,2013-03-04 08:30:00,
2013-03-04 03:35:00,19.5,8.5,30.09,WNW,293,0.0,0.0,62,0.00,,,0.00,WUHU216HW,2013-03-04 08:35:00,
2013-03-04 03:40:00,19.5,8.5,30.09,WNW,293,0.0,0.0,62,0.00,,,0.00,WUHU216HW,2013-03-04 08:40:00,
2013-03-04 03:45:00,19.5,8.5,30.09,WNW,293,0.0,0.0,62,0.00,,,0.00,WUHU216HW,2013-03-04 08:45:00,
2013-03-04 03:50:00,19.5,8.9,30.09,WNW,293,0.0,0.0,63,0.00,,,0.00,WUHU216HW,2013-03-04 08:50:00,
2013-03-04 03:55:00,19.5,8.9,30.09,North,0,0.0,0.0,63,0.00,,,0.00,WUHU216HW,2013-03-04 08:55:00,
2013-03-04 04:00:00,19.2,8.5,30.09,WNW,293,0.0,0.0,63,0.00,,,0.00,WUHU216HW,2013-03-04 09:00:00,
2013-03-04 04:05:00,19.2,8.5,30.09,WNW,293,0.0,0.0,63,0.00,,,0.00,WUHU216HW,2013-03-04 09:05:00,
2013-03-04 04:10:00,19.2,8.5,30.09,WNW,293,0.0,0.0,63,0.00,,,0.00,WUHU216HW,2013-03-04 09:10:00,
2013-03-04 04:15:00,19.0,8.4,30.10,WNW,293,0.0,0.0,63,0.00,,,0.00,WUHU216HW,2013-03-04 09:15:00,
2013-03-04 04:20:00,19.0,8.4,30.10,WNW,293,0.0,0.0,63,0.00,,,0.00,WUHU216HW,2013-03-04 09:20:00,
2013-03-04 04:25:00,18.8,8.2,30.10,WNW,293,0.0,0.0,63,0.00,,,0.00,WUHU216HW,2013-03-04 09:25:00,
2013-03-04 04:30:00,18.8,8.2,30.10,WNW,293,0.0,0.0,63,0.00,,,0.00,WUHU216HW,2013-03-04 09:30:00,
2013-03-04 04:35:00,18.8,8.2,30.10,WNW,293,0.0,0.0,63,0.00,,,0.00,WUHU216HW,2013-03-04 09:35:00,
2013-03-04 04:40:00,18.8,8.2,30.10,WNW,293,0.0,0.0,63,0.00,,,0.00,WUHU216HW,2013-03-04 09:40:00,
2013-03-04 04:45:00,18.5,8.0,30.11,WNW,293,0.0,0.0,63,0.00,,,0.00,WUHU216HW,2013-03-04 09:45:00,
2013-03-04 04:50:00,18.5,7.9,30.11,WNW,293,0.0,0.0,63,0.00,,,0.00,WUHU216HW,2013-03-04 09:50:00,
2013-03-04 04:55:00,18.5,7.9,30.11,WNW,293,0.0,0.0,63,0.00,,,0.00,WUHU216HW,2013-03-04 09:55:00,
2013-03-04 05:00:00,18.5,8.2,30.12,WNW,293,0.0,0.0,64,0.00,,,0.00,WUHU216HW,2013-03-04 10:00:00,
2013-03-04 05:05:00,18.5,8.2,30.12,WNW,293,0.0,0.0,64,0.00,,,0.00,WUHU216HW,2013-03-04 10:05:00,
2013-03-04 05:10:00,18.3,8.0,30.12,WNW,293,0.0,0.0,64,0.00,,,0.00,WUHU216HW,2013-03-04 10:10:00,
2013-03-04 05:15:00,18.3,8.0,30.12,WNW,293,0.0,0.0,64,0.00,,,0.00,WUHU216HW,2013-03-04 10:15:00,
2013-03-04 05:20:00,18.1,7.9,30.12,WNW,293,0.0,0.0,64,0.00,,,0.00,WUHU216HW,2013-03-04 10:20:00,
2013-03-04 05:25:00,18.1,7.9,30.12,WNW,293,0.0,0.0,64,0.00,,,0.00,WUHU216HW,2013-03-04 10:25:00,
2013-03-04 05:30:00,17.9,7.7,30.12,WNW,293,0.0,0.0,64,0.00,,,0.00,WUHU216HW,2013-03-04 10:30:00,
2013-03-04 05:35:00,17.9,7.7,30.13,WNW,293,0.0,0.0,64,0.00,,,0.00,WUHU216HW,2013-03-04 10:35:00,
2013-03-04 05:40:00,17.9,7.7,30.13,WNW,293,0.0,0.0,64,0.00,,,0.00,WUHU216HW,2013-03-04 10:40:00,
2013-03-04 05:45:00,17.9,7.7,30.13,WNW,293,0.0,0.0,64,0.00,,,0.00,WUHU216HW,2013-03-04 10:45:00,
2013-03-04 05:50:00,17.7,7.6,30.13,WNW,293,0.0,0.0,64,0.00,,,0.00,WUHU216HW,2013-03-04 10:50:00,
2013-03-04 05:55:00,17.7,7.6,30.13,WNW,293,0.0,0.0,64,0.00,,,0.00,WUHU216HW,2013-03-04 10:55:00,
2013-03-04 06:00:00,17.4,7.2,30.14,WNW,293,0.0,0.0,64,0.00,,,0.00,WUHU216HW,2013-03-04 11:00:00,
2013-03-04 06:05:00,17.4,7.2,30.14,WNW,293,0.0,0.0,64,0.00,,,0.00,WUHU216HW,2013-03-04 11:05:00,
2013-03-04 06:10:00,17.4,7.6,30.14,WNW,293,0.0,0.0,65,0.00,,,0.00,WUHU216HW,2013-03-04 11:10:00,
2013-03-04 06:15:00,17.4,7.6,30.14,WNW,293,0.0,0.0,65,0.00,,,0.00,WUHU216HW,2013-03-04 11:15:00,
2013-03-04 06:20:00,17.4,7.6,30.14,WNW,293,0.0,0.0,65,0.00,,,0.00,WUHU216HW,2013-03-04 11:20:00,
2013-03-04 06:25:00,17.4,7.6,30.15,WNW,293,0.0,0.0,65,0.00,,,0.00,WUHU216HW,2013-03-04 11:25:00,
2013-03-04 06:30:00,17.2,7.4,30.15,WNW,293,0.0,0.0,65,0.00,,,0.00,WUHU216HW,2013-03-04 11:30:00,
2013-03-04 06:35:00,17.4,7.6,30.15,WNW,293,0.0,0.0,65,0.00,,,0.00,WUHU216HW,2013-03-04 11:35:00,
2013-03-04 06:40:00,17.2,7.4,30.15,WNW,293,0.0,0.0,65,0.00,,,0.00,WUHU216HW,2013-03-04 11:40:00,
2013-03-04 06:45:00,17.4,7.6,30.15,WNW,293,0.0,0.0,65,0.00,,,0.00,WUHU216HW,2013-03-04 11:45:00,
2013-03-04 06:50:00,17.4,7.6,30.15,WNW,293,0.0,0.0,65,0.00,,,0.00,WUHU216HW,2013-03-04 11:50:00,
2013-03-04 06:55:00,17.4,7.6,30.15,WNW,293,0.0,0.0,65,0.00,,,0.00,WUHU216HW,2013-03-04 11:55:00,
2013-03-04 07:00:00,17.4,7.4,30.14,WNW,293,0.0,0.0,65,0.00,,,0.00,WUHU216HW,2013-03-04 12:00:00,
2013-03-04 07:05:00,17.4,7.6,30.15,WNW,293,0.0,0.0,65,0.00,,,0.00,WUHU216HW,2013-03-04 12:05:00,
2013-03-04 07:10:00,17.4,7.6,30.15,WNW,293,0.0,0.0,65,0.00,,,0.00,WUHU216HW,2013-03-04 12:10:00,
2013-03-04 07:15:00,17.7,7.9,30.15,WNW,293,0.0,0.0,65,0.00,,,0.00,WUHU216HW,2013-03-04 12:15:00,
2013-03-04 07:20:00,17.7,7.9,30.15,WNW,293,0.0,0.0,65,0.00,,,0.00,WUHU216HW,2013-03-04 12:20:00,
2013-03-04 07:25:00,17.7,8.2,30.15,WNW,293,0.0,0.0,66,0.00,,,0.00,WUHU216HW,2013-03-04 12:25:00,
2013-03-04 07:30:00,17.7,8.2,30.15,WNW,293,0.0,0.0,66,0.00,,,0.00,WUHU216HW,2013-03-04 12:30:00,
2013-03-04 07:35:00,17.7,7.9,30.16,WNW,293,0.0,0.0,65,0.00,,,0.00,WUHU216HW,2013-03-04 12:35:00,
2013-03-04 07:40:00,17.7,7.9,30.16,WNW,293,0.0,0.0,65,0.00,,,0.00,WUHU216HW,2013-03-04 12:40:00,
2013-03-04 07:45:00,17.7,7.9,30.17,WNW,293,0.0,0.0,65,0.00,,,0.00,WUHU216HW,2013-03-04 12:45:00,
2013-03-04 07:50:00,17.7,8.2,30.17,WNW,293,0.0,0.0,66,0.00,,,0.00,WUHU216HW,2013-03-04 12:50:00,
2013-03-04 07:55:00,17.7,8.2,30.17,North,0,0.0,0.0,66,0.00,,,0.00,WUHU216HW,2013-03-04 12:55:00,
2013-03-04 08:00:00,17.7,8.2,30.17,WNW,293,0.0,0.0,66,0.00,,,0.00,WUHU216HW,2013-03-04 13:00:00,
2013-03-04 08:05:00,17.7,8.2,30.17,WNW,293,0.0,0.0,66,0.00,,,0.00,WUHU216HW,2013-03-04 13:05:00,
2013-03-04 08:10:00,17.9,8.4,30.17,WNW,293,0.0,0.0,66,0.00,,,0.00,WUHU216HW,2013-03-04 13:10:00,
2013-03-04 08:15:00,17.9,8.4,30.17,WNW,293,0.0,0.0,66,0.00,,,0.00,WUHU216HW,2013-03-04 13:15:00,
2013-03-04 08:20:00,18.1,8.6,30.17,WNW,293,0.0,0.0,66,0.00,,,0.00,WUHU216HW,2013-03-04 13:20:00,
2013-03-04 08:25:00,18.3,8.7,30.17,SSW,203,0.0,0.0,66,0.00,,,0.00,WUHU216HW,2013-03-04 13:25:00,
2013-03-04 08:30:00,18.5,8.9,30.17,SW,225,0.0,0.0,66,0.00,,,0.00,WUHU216HW,2013-03-04 13:30:00,
2013-03-04 08:35:00,18.8,9.6,30.17,SW,225,0.0,0.0,67,0.00,,,0.00,WUHU216HW,2013-03-04 13:35:00,
2013-03-04 08:40:00,19.0,9.7,30.17,SSW,203,0.0,0.0,67,0.00,,,0.00,WUHU216HW,2013-03-04 13:40:00,
2013-03-04 08:45:00,19.5,10.2,30.17,SSW,203,0.0,0.0,67,0.00,,,0.00,WUHU216HW,2013-03-04 13:45:00,
2013-03-04 08:50:00,19.9,10.9,30.18,South,180,0.0,0.0,68,0.00,,,0.00,WUHU216HW,2013-03-04 13:50:00,
2013-03-04 08:55:00,20.3,11.3,30.18,SW,225,0.0,0.0,68,0.00,,,0.00,WUHU216HW,2013-03-04 13:55:00,
2013-03-04 09:00:00,20.6,11.6,30.18,SW,225,0.0,0.0,68,0.00,,,0.00,WUHU216HW,2013-03-04 14:00:00,
2013-03-04 09:05:00,21.0,12.0,30.17,SW,225,0.0,0.0,68,0.00,,,0.00,WUHU216HW,2013-03-04 14:05:00,
2013-03-04 09:10:00,21.3,12.3,30.17,SW,225,0.0,0.0,68,0.00,,,0.00,WUHU216HW,2013-03-04 14:10:00,
2013-03-04 09:15:00,21.9,12.9,30.18,WSW,248,0.0,0.0,68,0.00,,,0.00,WUHU216HW,2013-03-04 14:15:00,
2013-03-04 09:20:00,22.1,13.4,30.17,SW,225,0.0,0.6,69,0.00,,,0.00,WUHU216HW,2013-03-04 14:20:00,
2013-03-04 09:25:00,22.6,14.0,30.17,South,180,0.0,0.6,69,0.00,,,0.00,WUHU216HW,2013-03-04 14:25:00,
2013-03-04 09:30:00,23.1,14.5,30.17,South,180,0.0,0.0,69,0.00,,,0.00,WUHU216HW,2013-03-04 14:30:00,
2013-03-04 09:35:00,23.5,14.8,30.17,SSW,203,0.0,0.0,69,0.00,,,0.00,WUHU216HW,2013-03-04 14:35:00,
2013-03-04 09:40:00,23.9,14.8,30.17,SSE,158,0.0,0.0,68,0.00,,,0.00,WUHU216HW,2013-03-04 14:40:00,
2013-03-04 09:45:00,24.4,15.3,30.18,South,180,0.0,0.0,68,0.00,,,0.00,WUHU216HW,2013-03-04 14:45:00,
2013-03-04 09:50:00,24.9,15.8,30.17,NW,315,0.0,0.0,68,0.00,,,0.00,WUHU216HW,2013-03-04 14:50:00,
2013-03-04 09:55:00,25.3,16.1,30.17,West,270,0.0,0.0,68,0.00,,,0.00,WUHU216HW,2013-03-04 14:55:00,
2013-03-04 10:00:00,25.8,16.3,30.17,WSW,248,0.0,0.0,67,0.00,,,0.00,WUHU216HW,2013-03-04 15:00:00,
2013-03-04 10:05:00,26.7,17.2,30.17,SSW,203,3.5,3.5,67,0.00,,,0.00,WUHU216HW,2013-03-04 15:05:00,
2013-03-04 10:10:00,26.9,17.0,30.17,WSW,248,0.0,3.5,66,0.00,,,0.00,WUHU216HW,2013-03-04 15:10:00,
2013-03-04 10:15:00,27.5,17.2,30.17,WSW,248,0.0,3.3,65,0.00,,,0.00,WUHU216HW,2013-03-04 15:15:00,
2013-03-04 10:20:00,27.8,17.6,30.18,NW,315,0.0,0.0,65,0.00,,,0.00,WUHU216HW,2013-03-04 15:20:00,
2013-03-04 10:25:00,28.5,17.9,30.17,SW,225,0.0,0.0,64,0.00,,,0.00,WUHU216HW,2013-03-04 15:25:00,
2013-03-04 10:30:00,29.1,18.0,30.17,NW,315,4.2,4.2,63,0.00,,,0.00,WUHU216HW,2013-03-04 15:30:00,
2013-03-04 10:35:00,29.6,18.1,30.17,West,270,0.0,4.2,62,0.00,,,0.00,WUHU216HW,2013-03-04 15:35:00,
2013-03-04 10:40:00,30.2,18.3,30.17,West,270,0.0,0.0,61,0.00,,,0.00,WUHU216HW,2013-03-04 15:40:00,
2013-03-04 10:45:00,30.5,18.6,30.17,WNW,293,1.5,1.5,61,0.00,,,0.00,WUHU216HW,2013-03-04 15:45:00,
2013-03-04 10:50:00,31.1,18.8,30.16,SW,225,0.0,1.5,60,0.00,,,0.00,WUHU216HW,2013-03-04 15:50:00,
2013-03-04 10:55:00,31.2,17.7,30.16,WSW,248,2.2,3.1,57,0.00,,,0.00,WUHU216HW,2013-03-04 15:55:00,
2013-03-04 11:00:00,31.4,17.5,30.16,West,270,0.0,4.6,56,0.00,,,0.00,WUHU216HW,2013-03-04 16:00:00,
2013-03-04 11:05:00,31.4,17.0,30.16,WSW,248,0.0,5.5,55,0.00,,,0.00,WUHU216HW,2013-03-04 16:05:00,
2013-03-04 11:10:00,31.4,16.6,30.16,SSW,203,0.0,5.5,54,0.00,,,0.00,WUHU216HW,2013-03-04 16:10:00,
2013-03-04 11:15:00,31.8,16.5,30.16,SW,225,2.2,3.1,53,0.00,,,0.00,WUHU216HW,2013-03-04 16:15:00,
2013-03-04 11:20:00,32.1,16.4,30.16,WNW,293,2.0,4.2,52,0.00,,,0.00,WUHU216HW,2013-03-04 16:20:00,
2013-03-04 11:25:00,32.5,16.3,30.15,West,270,0.0,4.2,51,0.00,,,0.00,WUHU216HW,2013-03-04 16:25:00,
2013-03-04 11:30:00,32.9,16.6,30.16,South,180,0.0,4.6,51,0.00,,,0.00,WUHU216HW,2013-03-04 16:30:00,
2013-03-04 11:35:00,33.4,17.1,30.15,SSW,203,0.0,4.6,51,0.00,,,0.00,WUHU216HW,2013-03-04 16:35:00,
2013-03-04 11:40:00,33.9,18.1,30.15,West,270,0.0,2.0,52,0.00,,,0.00,WUHU216HW,2013-03-04 16:40:00,
2013-03-04 11:45:00,33.9,17.6,30.15,West,270,0.0,4.9,51,0.00,,,0.00,WUHU216HW,2013-03-04 16:45:00,
2013-03-04 11:50:00,34.1,17.4,30.15,SW,225,3.8,4.9,50,0.00,,,0.00,WUHU216HW,2013-03-04 16:50:00,
2013-03-04 11:55:00,34.1,16.3,30.14,WSW,248,0.0,3.8,48,0.00,,,0.00,WUHU216HW,2013-03-04 16:55:00,
2013-03-04 12:00:00,34.1,15.8,30.14,WSW,248,0.0,3.3,47,0.00,,,0.00,WUHU216HW,2013-03-04 17:00:00,
2013-03-04 12:05:00,34.5,16.2,30.14,WSW,248,0.0,21.4,47,0.00,,,0.00,WUHU216HW,2013-03-04 17:05:00,
2013-03-04 12:10:00,34.7,15.9,30.14,SSE,158,6.0,21.4,46,0.00,,,0.00,WUHU216HW,2013-03-04 17:10:00,
2013-03-04 12:15:00,34.7,15.9,30.13,NW,315,0.0,6.4,46,0.00,,,0.00,WUHU216HW,2013-03-04 17:15:00,
2013-03-04 12:20:00,35.0,16.2,30.13,SSW,203,1.5,6.4,46,0.00,,,0.00,WUHU216HW,2013-03-04 17:20:00,
2013-03-04 12:25:00,35.0,15.7,30.13,WNW,293,0.0,2.4,45,0.00,,,0.00,WUHU216HW,2013-03-04 17:25:00,
2013-03-04 12:30:00,35.6,16.2,30.12,SW,225,5.1,5.1,45,0.00,,,0.00,WUHU216HW,2013-03-04 17:30:00,
2013-03-04 12:35:00,35.6,15.2,30.12,SSE,158,3.1,5.1,43,0.00,,,0.00,WUHU216HW,2013-03-04 17:35:00,
2013-03-04 12:40:00,35.7,14.8,30.12,WSW,248,0.0,4.2,42,0.00,,,0.00,WUHU216HW,2013-03-04 17:40:00,
2013-03-04 12:45:00,36.1,15.6,30.12,SW,225,1.3,4.2,43,0.00,,,0.00,WUHU216HW,2013-03-04 17:45:00,
2013-03-04 12:50:00,36.3,15.3,30.12,WSW,248,0.0,3.3,42,0.00,,,0.00,WUHU216HW,2013-03-04 17:50:00,
2013-03-04 12:55:00,36.8,15.8,30.12,SW,225,0.0,3.3,42,0.00,,,0.00,WUHU216HW,2013-03-04 17:55:00,
2013-03-04 13:00:00,37.5,16.4,30.11,WNW,293,0.0,0.6,42,0.00,,,0.00,WUHU216HW,2013-03-04 18:00:00,
2013-03-04 13:05:00,38.1,16.9,30.11,South,180,2.6,5.5,42,0.00,,,0.00,WUHU216HW,2013-03-04 18:05:00,
2013-03-04 13:10:00,38.4,16.2,30.11,SW,225,0.0,5.5,40,0.00,,,0.00,WUHU216HW,2013-03-04 18:10:00,
2013-03-04 13:15:00,39.5,17.2,30.11,WSW,248,0.0,1.7,40,0.00,,,0.00,WUHU216HW,2013-03-04 18:15:00,
2013-03-04 13:20:00,40.4,18.0,30.11,West,270,0.0,2.9,40,0.00,,,0.00,WUHU216HW,2013-03-04 18:20:00,
2013-03-04 13:25:00,41.1,18.6,30.10,West,270,0.0,2.9,40,0.00,,,0.00,WUHU216HW,2013-03-04 18:25:00,
2013-03-04 13:29:00,41.3,17.5,30.10,South,180,1.3,2.6,38,0.00,,,0.00,WUHU216HW,2013-03-04 18:29:00,
2013-03-04 13:30:00,41.3,17.5,30.10,South,180,1.3,2.6,38,0.00,,,0.00,WUHU216HW,2013-03-04 18:30:00,
2013-03-04 13:35:00,41.3,15.5,30.10,SSE,158,0.0,4.9,35,0.00,,,0.00,WUHU216HW,2013-03-04 18:35:00,
2013-03-04 13:40:00,41.7,15.8,30.10,WSW,248,0.0,5.3,35,0.00,,,0.00,WUHU216HW,2013-03-04 18:40:00,
2013-03-04 13:45:00,42.4,15.8,30.09,SW,225,0.0,5.3,34,0.00,,,0.00,WUHU216HW,2013-03-04 18:45:00,
2013-03-04 13:50:00,43.1,15.1,30.09,South,180,3.5,3.5,32,0.00,,,0.00,WUHU216HW,2013-03-04 18:50:00,
2013-03-04 13:55:00,42.9,10.9,30.09,SSW,203,0.0,4.2,27,0.00,,,0.00,WUHU216HW,2013-03-04 18:55:00,
2013-03-04 14:00:00,42.4,7.7,30.09,SW,225,0.0,4.2,24,0.00,,,0.00,WUHU216HW,2013-03-04 19:00:00,
2013-03-04 14:05:00,42.9,10.0,30.09,SSW,203,0.0,2.9,26,0.00,,,0.00,WUHU216HW,2013-03-04 19:05:00,
2013-03-04 14:10:00,44.4,16.9,30.09,WSW,248,1.3,1.3,33,0.00,,,0.00,WUHU216HW,2013-03-04 19:10:00,
2013-03-04 14:15:00,45.5,17.2,30.09,SSW,203,2.4,2.4,32,0.00,,,0.00,WUHU216HW,2013-03-04 19:15:00,
2013-03-04 14:20:00,45.3,5.4,30.09,SW,225,0.0,8.2,19,0.00,,,0.00,WUHU216HW,2013-03-04 19:20:00,
2013-03-04 14:25:00,45.1,5.2,30.08,SE,135,0.0,8.2,19,0.00,,,0.00,WUHU216HW,2013-03-04 19:25:00,
2013-03-04 14:30:00,45.5,5.6,30.07,WSW,248,0.0,4.9,19,0.00,,,0.00,WUHU216HW,2013-03-04 19:30:00,
2013-03-04 14:35:00,45.8,5.8,30.07,SW,225,0.0,5.3,19,0.00,,,0.00,WUHU216HW,2013-03-04 19:35:00,
2013-03-04 14:40:00,46.0,6.0,30.08,NNW,338,0.0,5.3,19,0.00,,,0.00,WUHU216HW,2013-03-04 19:40:00,
2013-03-04 14:45:00,47.1,6.9,30.08,West,270,0.0,2.6,19,0.00,,,0.00,WUHU216HW,2013-03-04 19:45:00,
2013-03-04 14:50:00,47.8,7.5,30.08,WSW,248,0.0,3.3,19,0.00,,,0.00,WUHU216HW,2013-03-04 19:50:00,
2013-03-04 14:55:00,48.5,8.0,30.08,South,180,0.0,3.3,19,0.00,,,0.00,WUHU216HW,2013-03-04 19:55:00,
2013-03-04 15:00:00,48.9,8.4,30.07,WSW,248,2.4,2.4,19,0.00,,,0.00,WUHU216HW,2013-03-04 20:00:00,
2013-03-04 15:05:00,49.1,17.1,30.07,WNW,293,0.6,2.4,28,0.00,,,0.00,WUHU216HW,2013-03-04 20:05:00,
2013-03-04 15:10:00,49.6,16.7,30.07,WSW,248,1.3,2.4,27,0.00,,,0.00,WUHU216HW,2013-03-04 20:10:00,
2013-03-04 15:15:00,49.6,16.7,30.07,SW,225,0.0,3.1,27,0.00,,,0.00,WUHU216HW,2013-03-04 20:15:00,
2013-03-04 15:20:00,50.3,17.3,30.07,West,270,0.0,3.1,27,0.00,,,0.00,WUHU216HW,2013-03-04 20:20:00,
2013-03-04 15:25:00,50.7,17.6,30.07,West,270,0.0,0.0,27,0.00,,,0.00,WUHU216HW,2013-03-04 20:25:00,
2013-03-04 15:30:00,50.9,16.8,30.07,North,0,0.0,0.0,26,0.00,,,0.00,WUHU216HW,2013-03-04 20:30:00,
2013-03-04 15:35:00,51.2,17.1,30.07,WNW,293,0.0,0.0,26,0.00,,,0.00,WUHU216HW,2013-03-04 20:35:00,
2013-03-04 15:40:00,51.4,17.3,30.07,South,180,0.0,0.0,26,0.00,,,0.00,WUHU216HW,2013-03-04 20:40:00,
2013-03-04 15:45:00,50.9,15.9,30.07,West,270,0.0,2.4,25,0.00,,,0.00,WUHU216HW,2013-03-04 20:45:00,
2013-03-04 15:50:00,50.9,15.9,30.07,SW,225,0.0,2.4,25,0.00,,,0.00,WUHU216HW,2013-03-04 20:50:00,
2013-03-04 15:55:00,51.2,14.3,30.07,South,180,2.4,2.4,23,0.00,,,0.00,WUHU216HW,2013-03-04 20:55:00,
2013-03-04 16:00:00,51.2,15.2,30.07,WSW,248,0.0,2.4,24,0.00,,,0.00,WUHU216HW,2013-03-04 21:00:00,
2013-03-04 16:05:00,51.0,15.1,30.07,WSW,248,0.0,0.0,24,0.00,,,0.00,WUHU216HW,2013-03-04 21:05:00,
2013-03-04 16:10:00,50.7,14.8,30.07,WNW,293,0.0,0.0,24,0.00,,,0.00,WUHU216HW,2013-03-04 21:10:00,
2013-03-04 16:15:00,50.3,12.7,30.07,South,180,0.0,0.0,23,0.00,,,0.00,WUHU216HW,2013-03-04 21:15:00,
2013-03-04 16:20:00,49.1,12.8,30.07,SW,225,0.0,0.0,23,0.00,,,0.00,WUHU216HW,2013-03-04 21:20:00,
2013-03-04 16:25:00,47.8,7.5,30.07,NW,315,0.0,0.0,19,0.00,,,0.00,WUHU216HW,2013-03-04 21:25:00,
2013-03-04 16:30:00,47.3,7.0,30.07,WNW,293,2.6,2.6,19,0.00,,,0.00,WUHU216HW,2013-03-04 21:30:00,
2013-03-04 16:35:00,46.7,6.5,30.07,SW,225,0.0,2.6,19,0.00,,,0.00,WUHU216HW,2013-03-04 21:35:00,
2013-03-04 16:40:00,46.4,6.3,30.07,SSW,203,0.0,0.0,19,0.00,,,0.00,WUHU216HW,2013-03-04 21:40:00,
2013-03-04 16:45:00,46.0,6.0,30.07,West,270,0.0,0.0,19,0.00,,,0.00,WUHU216HW,2013-03-04 21:45:00,
2013-03-04 16:50:00,46.0,6.0,30.07,WSW,248,0.0,0.0,19,0.00,,,0.00,WUHU216HW,2013-03-04 21:50:00,
2013-03-04 16:55:00,46.4,6.3,30.06,SW,225,0.0,0.0,19,0.00,,,0.00,WUHU216HW,2013-03-04 21:55:00,
2013-03-04 17:00:00,46.7,6.5,30.06,West,270,0.0,0.0,19,0.00,,,0.00,WUHU216HW,2013-03-04 22:00:00,
2013-03-04 17:05:00,46.9,6.7,30.06,West,270,0.0,0.0,19,0.00,,,0.00,WUHU216HW,2013-03-04 22:05:00,
2013-03-04 17:10:00,46.7,6.5,30.06,WSW,248,0.0,0.0,19,0.00,,,0.00,WUHU216HW,2013-03-04 22:10:00,
2013-03-04 17:15:00,46.5,6.4,30.06,WNW,293,0.0,0.0,19,0.00,,,0.00,WUHU216HW,2013-03-04 22:15:00,
2013-03-04 17:20:00,45.8,5.8,30.06,WNW,293,0.0,0.0,19,0.00,,,0.00,WUHU216HW,2013-03-04 22:20:00,
2013-03-04 17:25:00,44.9,5.1,30.06,WNW,293,0.0,0.0,19,0.00,,,0.00,WUHU216HW,2013-03-04 22:25:00,
2013-03-04 17:30:00,44.2,4.5,30.06,WNW,293,0.0,0.0,19,0.00,,,0.00,WUHU216HW,2013-03-04 22:30:00,
2013-03-04 17:35:00,43.5,3.9,30.06,WNW,293,0.0,0.0,19,0.00,,,0.00,WUHU216HW,2013-03-04 22:35:00,
2013-03-04 17:40:00,42.6,3.1,30.06,WNW,293,0.0,0.0,19,0.00,,,0.00,WUHU216HW,2013-03-04 22:40:00,
2013-03-04 17:45:00,42.2,2.8,30.06,WNW,293,0.0,0.0,19,0.00,,,0.00,WUHU216HW,2013-03-04 22:45:00,
2013-03-04 17:50:00,41.9,2.6,30.07,WNW,293,0.0,0.0,19,0.00,,,0.00,WUHU216HW,2013-03-04 22:50:00,
2013-03-04 17:55:00,41.1,1.9,30.06,WNW,293,0.0,0.0,19,0.00,,,0.00,WUHU216HW,2013-03-04 22:55:00,
2013-03-04 18:00:00,40.6,1.5,30.06,WNW,293,0.0,0.0,19,0.00,,,0.00,WUHU216HW,2013-03-04 23:00:00,
2013-03-04 18:05:00,40.2,1.2,30.06,WNW,293,0.0,0.0,19,0.00,,,0.00,WUHU216HW,2013-03-04 23:05:00,
2013-03-04 18:10:00,40.1,1.1,30.07,WNW,293,0.0,0.0,19,0.00,,,0.00,WUHU216HW,2013-03-04 23:10:00,
2013-03-04 18:15:00,39.5,0.6,30.07,WNW,293,0.0,0.0,19,0.00,,,0.00,WUHU216HW,2013-03-04 23:15:00,
2013-03-04 18:20:00,39.2,0.3,30.06,WNW,293,0.0,0.0,19,0.00,,,0.00,WUHU216HW,2013-03-04 23:20:00,
2013-03-04 18:25:00,38.8,0.0,30.07,WNW,293,0.0,0.0,19,0.00,,,0.00,WUHU216HW,2013-03-04 23:25:00,
2013-03-04 18:30:00,38.3,-0.4,30.06,WNW,293,0.0,0.0,19,0.00,,,0.00,WUHU216HW,2013-03-04 23:30:00,
2013-03-04 18:35:00,37.9,-0.8,30.07,WNW,293,0.0,0.0,19,0.00,,,0.00,WUHU216HW,2013-03-04 23:35:00,
2013-03-04 18:40:00,37.5,-1.1,30.07,WNW,293,0.0,0.0,19,0.00,,,0.00,WUHU216HW,2013-03-04 23:40:00,
2013-03-04 18:45:00,37.0,-0.3,30.07,WNW,293,0.0,0.0,20,0.00,,,0.00,WUHU216HW,2013-03-04 23:45:00,
2013-03-04 18:50:00,36.5,-1.9,30.07,WNW,293,0.0,0.0,19,0.00,,,0.00,WUHU216HW,2013-03-04 23:50:00,
2013-03-04 18:55:00,36.1,0.6,30.07,WNW,293,0.0,0.0,22,0.00,,,0.00,WUHU216HW,2013-03-04 23:55:00,
2013-03-04 19:00:00,35.7,2.1,30.07,WNW,293,0.0,0.0,24,0.00,,,0.00,WUHU216HW,2013-03-05 00:00:00,
2013-03-04 19:05:00,35.4,2.6,30.07,WNW,293,0.0,0.0,25,0.00,,,0.00,WUHU216HW,2013-03-05 00:05:00,
2013-03-04 19:10:00,35.2,5.1,30.07,WNW,293,0.0,0.0,28,0.00,,,0.00,WUHU216HW,2013-03-05 00:10:00,
2013-03-04 19:15:00,34.8,5.8,30.08,WNW,293,0.0,0.0,28,0.00,,,0.00,WUHU216HW,2013-03-05 00:15:00,
2013-03-04 19:20:00,34.7,6.4,30.07,WNW,293,0.0,0.0,30,0.00,,,0.00,WUHU216HW,2013-03-05 00:20:00,
2013-03-04 19:25:00,34.7,7.0,30.08,WNW,293,0.0,0.0,31,0.00,,,0.00,WUHU216HW,2013-03-05 00:25:00,
2013-03-04 19:30:00,34.3,6.1,30.08,WNW,293,0.0,0.0,30,0.00,,,0.00,WUHU216HW,2013-03-05 00:30:00,
2013-03-04 19:35:00,34.3,7.4,30.08,WNW,293,0.0,0.0,32,0.00,,,0.00,WUHU216HW,2013-03-05 00:35:00,
2013-03-04 19:40:00,34.1,7.1,30.08,WNW,293,0.0,0.0,32,0.00,,,0.00,WUHU216HW,2013-03-05 00:40:00,
2013-03-04 19:45:00,33.9,7.1,30.08,WNW,293,0.0,0.0,32,0.00,,,0.00,WUHU216HW,2013-03-05 00:45:00,
2013-03-04 19:50:00,33.6,6.8,30.07,WNW,293,0.0,0.0,32,0.00,,,0.00,WUHU216HW,2013-03-05 00:50:00,
2013-03-04 19:55:00,33.4,6.0,30.07,WNW,293,0.0,0.0,32,0.00,,,0.00,WUHU216HW,2013-03-05 00:55:00,
2013-03-04 20:00:00,33.4,7.2,30.08,WNW,293,0.0,0.0,33,0.00,,,0.00,WUHU216HW,2013-03-05 01:00:00,
2013-03-04 20:05:00,33.2,7.1,30.08,WNW,293,0.0,0.0,33,0.00,,,0.00,WUHU216HW,2013-03-05 01:05:00,
2013-03-04 20:10:00,33.0,6.8,30.08,WNW,293,0.0,0.0,33,0.00,,,0.00,WUHU216HW,2013-03-05 01:10:00,
2013-03-04 20:15:00,32.9,6.8,30.08,WNW,293,0.0,0.0,33,0.00,,,0.00,WUHU216HW,2013-03-05 01:15:00,
2013-03-04 20:20:00,32.9,7.4,30.08,WNW,293,0.0,0.0,34,0.00,,,0.00,WUHU216HW,2013-03-05 01:20:00,
2013-03-04 20:25:00,32.7,7.2,30.08,WNW,293,0.0,0.0,34,0.00,,,0.00,WUHU216HW,2013-03-05 01:25:00,
2013-03-04 20:30:00,32.5,7.8,30.08,WNW,293,0.0,0.0,35,0.00,,,0.00,WUHU216HW,2013-03-05 01:30:00,
2013-03-04 20:35:00,32.7,7.8,30.08,WNW,293,0.0,0.0,35,0.00,,,0.00,WUHU216HW,2013-03-05 01:35:00,
2013-03-04 20:40:00,32.5,7.7,30.07,WNW,293,0.0,0.0,35,0.00,,,0.00,WUHU216HW,2013-03-05 01:40:00,
2013-03-04 20:45:00,32.5,7.7,30.07,WNW,293,0.0,0.0,35,0.00,,,0.00,WUHU216HW,2013-03-05 01:45:00,
2013-03-04 20:50:00,32.3,7.5,30.07,WNW,293,0.0,0.0,35,0.00,,,0.00,WUHU216HW,2013-03-05 01:50:00,
2013-03-04 20:55:00,32.3,7.5,30.07,WNW,293,0.0,0.0,35,0.00,,,0.00,WUHU216HW,2013-03-05 01:55:00,
2013-03-04 21:00:00,32.3,7.5,30.07,WNW,293,0.0,0.0,35,0.00,,,0.00,WUHU216HW,2013-03-05 02:00:00,
2013-03-04 21:05:00,32.3,7.5,30.07,WNW,293,0.0,0.0,35,0.00,,,0.00,WUHU216HW,2013-03-05 02:05:00,
2013-03-04 21:10:00,32.1,7.4,30.07,WNW,293,0.0,0.0,36,0.00,,,0.00,WUHU216HW,2013-03-05 02:10:00,
2013-03-04 21:15:00,32.1,8.0,30.07,WNW,293,0.0,0.0,36,0.00,,,0.00,WUHU216HW,2013-03-05 02:15:00,
2013-03-04 21:20:00,32.1,8.0,30.07,WNW,293,0.0,0.0,36,0.00,,,0.00,WUHU216HW,2013-03-05 02:20:00,
2013-03-04 21:25:00,31.8,7.8,30.07,WNW,293,0.0,0.0,36,0.00,,,0.00,WUHU216HW,2013-03-05 02:25:00,
2013-03-04 21:30:00,31.8,7.7,30.07,WNW,293,0.0,0.0,36,0.00,,,0.00,WUHU216HW,2013-03-05 02:30:00,
2013-03-04 21:35:00,31.8,7.7,30.07,WNW,293,0.0,0.0,36,0.00,,,0.00,WUHU216HW,2013-03-05 02:35:00,
2013-03-04 21:40:00,31.6,8.3,30.07,WNW,293,0.0,0.0,37,0.00,,,0.00,WUHU216HW,2013-03-05 02:40:00,
2013-03-04 21:45:00,31.8,8.3,30.07,WNW,293,0.0,0.0,37,0.00,,,0.00,WUHU216HW,2013-03-05 02:45:00,
2013-03-04 21:50:00,31.6,8.1,30.07,ENE,68,0.0,0.0,37,0.00,,,0.00,WUHU216HW,2013-03-05 02:50:00,
2013-03-04 21:55:00,31.6,8.1,30.07,East,90,0.0,0.0,37,0.00,,,0.00,WUHU216HW,2013-03-05 02:55:00,
2013-03-04 22:00:00,31.6,8.8,30.07,ENE,68,0.0,0.0,38,0.00,,,0.00,WUHU216HW,2013-03-05 03:00:00,
2013-03-04 22:05:00,31.8,9.6,30.07,ENE,68,0.0,0.0,39,0.00,,,0.00,WUHU216HW,2013-03-05 03:05:00,
2013-03-04 22:10:00,31.6,9.4,30.07,ENE,68,0.0,0.0,39,0.00,,,0.00,WUHU216HW,2013-03-05 03:10:00,
2013-03-04 22:15:00,31.8,9.6,30.06,ENE,68,0.0,0.0,39,0.00,,,0.00,WUHU216HW,2013-03-05 03:15:00,
2013-03-04 22:20:00,31.8,9.6,30.06,ENE,68,0.0,0.0,39,0.00,,,0.00,WUHU216HW,2013-03-05 03:20:00,
2013-03-04 22:25:00,31.8,10.2,30.06,ENE,68,0.0,0.0,40,0.00,,,0.00,WUHU216HW,2013-03-05 03:25:00,
2013-03-04 22:30:00,32.0,10.2,30.06,ENE,68,0.0,0.0,40,0.00,,,0.00,WUHU216HW,2013-03-05 03:30:00,
2013-03-04 22:35:00,31.8,10.2,30.07,ENE,68,0.0,0.0,40,0.00,,,0.00,WUHU216HW,2013-03-05 03:35:00,
2013-03-04 22:40:00,32.0,10.4,30.07,ENE,68,0.0,0.0,40,0.00,,,0.00,WUHU216HW,2013-03-05 03:40:00,
2013-03-04 22:45:00,31.8,10.7,30.07,ENE,68,0.0,0.0,41,0.00,,,0.00,WUHU216HW,2013-03-05 03:45:00,
2013-03-04 22:50:00,31.8,10.7,30.07,ENE,68,0.0,0.0,41,0.00,,,0.00,WUHU216HW,2013-03-05 03:50:00,
2013-03-04 22:55:00,31.8,10.7,30.07,ENE,68,0.0,0.0,41,0.00,,,0.00,WUHU216HW,2013-03-05 03:55:00,
2013-03-04 23:00:00,31.8,10.7,30.07,ENE,68,0.0,0.0,41,0.00,,,0.00,WUHU216HW,2013-03-05 04:00:00,
2013-03-04 23:05:00,31.8,10.7,30.07,ENE,68,0.0,0.0,41,0.00,,,0.00,WUHU216HW,2013-03-05 04:05:00,
2013-03-04 23:10:00,31.8,11.2,30.07,ENE,68,0.0,0.0,41,0.00,,,0.00,WUHU216HW,2013-03-05 04:10:00,
2013-03-04 23:15:00,31.8,11.2,30.07,ENE,68,0.0,0.0,41,0.00,,,0.00,WUHU216HW,2013-03-05 04:15:00,
2013-03-04 23:20:00,32.0,11.4,30.08,ENE,68,0.0,0.0,42,0.00,,,0.00,WUHU216HW,2013-03-05 04:20:00,
2013-03-04 23:25:00,31.8,11.2,30.07,ENE,68,0.0,0.0,42,0.00,,,0.00,WUHU216HW,2013-03-05 04:25:00,
2013-03-04 23:30:00,32.1,11.5,30.07,ENE,68,0.0,0.0,42,0.00,,,0.00,WUHU216HW,2013-03-05 04:30:00,
2013-03-04 23:35:00,32.0,11.4,30.07,ENE,68,0.0,0.0,42,0.00,,,0.00,WUHU216HW,2013-03-05 04:35:00,
2013-03-04 23:40:00,32.1,11.5,30.07,ENE,68,0.0,0.0,42,0.00,,,0.00,WUHU216HW,2013-03-05 04:40:00,
2013-03-04 23:45:00,32.1,11.5,30.07,ENE,68,0.0,0.0,42,0.00,,,0.00,WUHU216HW,2013-03-05 04:45:00,
2013-03-04 23:50:00,32.1,11.5,30.07,ENE,68,0.0,0.0,42,0.00,,,0.00,WUHU216HW,2013-03-05 04:50:00,
2013-03-04 23:55:00,32.1,11.5,30.07,ENE,68,0.0,0.0,42,0.00,,,0.00,WUHU216HW,2013-03-05 04:55:00,